Regional Weather Roundup
Issued by NWS

Home | Current Version | Previous Version | Text Only | Print | Product List | Glossary On
Versions: 1 2 3 4 5 6 7 8 9 10 11 12 13 14 15 16 17 18 19 20 21 22 23 24 25 26 27
000
ASUS45 KPSR 291510
RWRAZ

ARIZONA HOURLY REGIONAL WEATHER ROUNDUP
NATIONAL WEATHER SERVICE PHOENIX AZ
800 AM MST SUN MAY 29 2016

NOTE: FAIR INDICATES FEW OR NO CLOUDS BELOW 12,000 FEET WITH NO
SIGNIFICANT WEATHER AND/OR OBSTRUCTIONS TO VISIBILITY.

AZZ001>003-036-291600-
NORTHWEST ARIZONA

CITY           SKY/WX    TMP DP  RH WIND       PRES   REMARKS
BULLHEAD CITY  SUNNY     79  32  18 S6        29.89
KINGMAN        SUNNY     73  29  19 VRB5      30.02R
$$

AZZ004>008-015-016-018-291600-
NORTH CENTRAL ARIZONA

CITY           SKY/WX    TMP DP  RH WIND       PRES   REMARKS
GRAND CANYON   SUNNY     63  26  24 E3        30.21R
WILLIAMS       SUNNY     61  25  25 SE13      30.28R
PRESCOTT       SUNNY     65  29  25 E6        30.13R
FLAGSTAFF      SUNNY     57  24  28 SW6       30.24R
PAYSON         SUNNY     66  28  24 VRB6      30.17R
$$

AZZ009>014-017-291600-
NORTHEAST ARIZONA

CITY           SKY/WX    TMP DP  RH WIND       PRES   REMARKS
WINSLOW        SUNNY     63  27  25 E8        30.15R
SAINT JOHNS    SUNNY     64  23  21 CALM      30.18S
WINDOW ROCK    SUNNY     60  30  32 CALM      30.23R
SHOW LOW       SUNNY     63  23  22 CALM      30.23R
$$

AZZ023-291600-
GREATER PHOENIX AREA

CITY           SKY/WX    TMP DP  RH WIND       PRES   REMARKS
PHOENIX        SUNNY     80  37  21 SE5       29.94R
BUCKEYE        SUNNY     77  32  19 E7        29.96R
GLENDALE       SUNNY     77  37  24 CALM      29.96R
LUKE AFB       SUNNY     76  37  24 S1        29.94R
DEER VALLEY    SUNNY     76  34  21 E3        29.96R
SCOTTSDALE     SUNNY     76  34  21 VRB3      29.98R
MESA-FALCON    SUNNY    N/A N/A N/A VRB6      29.94
MESA-GATEWAY   SUNNY     73  37  27 SE6       29.97R
CHANDLER       SUNNY     75  41  29 SE6       29.96R
$$

AZZ027-028-291600-
SOUTHWEST MARICOPA COUNTY AND PINAL COUNTY

CITY           SKY/WX    TMP DP  RH WIND       PRES   REMARKS
CASA GRANDE    SUNNY     73  34  23 SE5       29.98R
GILA BEND      FAIR      79  28  15 N5        29.92R
$$

AZZ503-504-507>509-291600-
SOUTHEAST ARIZONA

CITY           SKY/WX    TMP DP  RH WIND       PRES   REMARKS
TUCSON         SUNNY     72  25  17 SE5       30.04R
DAVIS-MONTHAN  SUNNY     74  20  13 S6        30.03R
RYAN FIELD     SUNNY     70  32  24 CALM      30.04
NOGALES        SUNNY     71  27  19 VRB5      30.09R
SIERRA VISTA   SUNNY     72  19  13 SE15      30.14S
DOUGLAS        SUNNY     71  23  16 S8        30.13R
SAFFORD        SUNNY     76  17  11 E12       30.06R
$$

AZZ020-021-025-026-031-291600-
SOUTHWEST ARIZONA

CITY           SKY/WX    TMP DP  RH WIND       PRES   REMARKS
YUMA           SUNNY     75  46  35 S9        29.89R
$$

CAZ031-033-041-043-047-048-061-291600-
SOUTHERN CALIFORNIA

CITY           SKY/WX    TMP DP  RH WIND       PRES   REMARKS
DOWNTOWN L.A.  CLOUDY    62  55  77 CALM      30.00R
L.A. AIRPORT   CLOUDY    61  54  77 W7        30.01R
SAN DIEGO      PTSUNNY   61  56  83 CALM      30.02R
BURBANK        CLOUDY    57  55  93 CALM      30.00R FOG
ONTARIO        LGT RAIN  58  55  90 W7        30.00R FOG
RIVERSIDE      CLOUDY    59  54  83 W6        30.01R
PALM SPRINGS   SUNNY     73  53  49 NW7       29.92R
EL CENTRO NAS  SUNNY     74  51  44 SE8       29.89R
IMPERIAL       SUNNY     75  52  44 SE7       29.87R
BLYTHE         SUNNY     75  37  25 SE5       29.90R
NEEDLES        SUNNY     83  33  16 SW14      29.91R
$$

NVZ020-UTZ003-291600-
SOUTHERN NEVADA-UTAH

CITY           SKY/WX    TMP DP  RH WIND       PRES   REMARKS
LAS VEGAS      MOSUNNY   77  29  17 N3        29.91R
SALT LAKE CITY MOSUNNY   66  43  43 S6        30.09R
$$

NMZ009-TXZ055-291600-
NEW MEXICO-WEST TEXAS

CITY           SKY/WX    TMP DP  RH WIND       PRES   REMARKS
ALBUQUERQUE    MOSUNNY   66  22  18 S3        30.18R
EL PASO        MOSUNNY   80   8   6 CALM      30.10R
$$


........................KEY........................
SKY/WX - SKY CONDITION/WEATHER
TMP    - TEMPERATURE IN FAHRENHEIT
DP     - DEW POINT IN FAHRENHEIT
RH     - RELATIVE HUMIDITY IN PERCENT
WIND   - DIRECTION AND SPEED IN MILES PER HOUR (MPH)
VRB    - VARIABLE WIND DIRECTION
PRES   - MEAN SEA LEVEL PRESSURE IN INCHES OF MERCURY
         F - FALLING PRESSURE   R - RISING PRESSURE
         S - STEADY PRESSURE
VSB    - VISIBILITY IN MILES
HX     - HEAT INDEX IN FAHRENHEIT
WCI    - WIND CHILL INDEX IN FAHRENHEIT
TC     - TEMPERATURE IN CELSIUS WHICH IS ALSO KNOWN AS
         TEMPERATURE IN CENTIGRADE
AFB    - AIR FORCE BASE
         LUKE AFB IS LUKE AIR FORCE BASE
         DAVIS-MONTHAN IS DAVIS-MONTHAN AIR FORCE BASE
NAS    - NAVAL AIR STATION
         EL CENTRO NAS IS EL CENTRO NAVAL AIR STATION
N/A    - NOT AVAILABLE





USA.gov is the U.S. government's official web portal to all federal, state and local government web resources and services.